Weather in Gayter

Russia / Khabarovsk Krai     50°21′46″N   137°15′06″E
temp.,
°C
wind,
m/s
gust,
m/s
humid.,
%
clouds,
%
prec.,
mm/h
press.,
hPa
HPBL,
m
20 january, wed
wed2001:00−25s511860 0.0 1022291
04:00−25s512860 0.0 1022310
07:00−25s5129119 0.0 1024352
10:00−25s6128945 0.0 1025473
13:00−22ssw7118698 0.0 1024664
16:00−21ssw6118595 0.0 1022666
19:00−22s5118858 0.0 1023316
22:00−20s5128678 0.0 1021437
21 january, thu
thu2101:00−19s41096100 0.1 1018432
04:00−19s3797100 0.3 1014306
07:00−19ssw2597100 0.2 1013237
10:00−19ssw4894100 0.3 1012410
13:00−16sw5889100 0.1 1013768
16:00−17sw4791100 0.3 1013784
19:00−18s3797100 0.4 1016316
22:00−19s379699 0.6 1017262
22 january, fri
fri2201:00−22s339695 0.0 101854
04:00−23s239797 0.0 101857
07:00−23s2398100 0.1 101983
10:00−23ssw2596100 0.1 1020281
13:00−22ssw4590100 0.0 1020469
16:00−22ssw4790100 0.0 1020450
19:00−25s469671 0.0 1022117
22:00−25sse349685 0.0 102375
23 january, sat
sat2301:00−26s339680 0.0 102448
04:00−27sse339668 0.0 102547
07:00−27sse339667 0.0 102654
10:00−26s379466 0.0 1027247
13:00−22ssw588532 0.0 1026543
16:00−21ssw488441 0.0 1025498
19:00−22s3688100 0.0 1027127
22:00−20s3888100 0.0 1028247
24 january, sun
sun2401:00−21s479175 0.0 1027143
04:00−20s479388 0.0 1026225
07:00−19s2594100 0.0 1026164
10:00−19s2393100 0.0 1027201
13:00−17w1186100 0.0 1026445
16:00−17nnw1191100 0.1 1027134
19:00−21n229238 0.0 103020
22:00−23n229219 0.0 103220